Sparta, TN

9:08 PM CST on November 20, 2017 (GMT -0600)
Upper Cumberland Regional

Weather History for KSRB - May, 2013

Change the Weather History Date:

Friday, May 17, 2013

  Actual Average (KCSV) Record (KCSV)
Temperature  
Mean Temperature 64 °F -  
Max Temperature 69 °F 73 °F 86 °F (1962)
Min Temperature 59 °F 51 °F 36 °F (1973)
Degree Days  
Heating Degree Days 1    
Growing Degree Days 14 (Base 50)    
Moisture  
Dew Point 63 °F    
Average Humidity 97    
Maximum Humidity 100    
Minimum Humidity 78    
Precipitation  
Precipitation 0.00 in - - ()
Sea Level Pressure  
Sea Level Pressure 30.05 in    
Wind  
Wind Speed 1 mph (South)    
Max Wind Speed 9 mph    
Max Gust Speed -    
Visibility 8 miles    
Events      
Averages and records for this station are not official NWS values.
T = Trace of Precipitation, MM = Missing Value Source: NWS Daily Summary

Daily Weather History Graph

Daily Weather History Graph

Search for Another Location

Airport or City:

Trip Planner

Search our weather history database for the weather conditions in past years. The results will help you decide how hot, cold, wet, or windy it might be!

Date:

Astronomy

May. 17, 2013 Rise Set
Actual Time 5:34 AM CDT 7:43 PM CDT
Civil Twilight 5:05 AM CDT 8:11 PM CDT
Nautical Twilight 4:30 AM CDT 8:46 PM CDT
Astronomical Twilight 3:52 AM CDT 9:25 PM CDT
Moon 12:00 PM CDT (5/17) 12:39 AM CDT (5/17)
Length of Visible Light 15h 06m
Length of Day
14h 08m
Waxing Crescent, 45% of the Moon is Illuminated
May 17
Waxing Crescent
May 17
First Quarter
May 24
Full
May 31
Last Quarter
Jun 8
New

Hourly Weather History & Observations

Time (CDT) Temp. Dew Point Humidity Pressure Visibility Wind Dir Wind Speed Gust Speed Precip Events Conditions
12:15 AM 60.8 °F 60.8 °F 100% 30.02 in 10.0 mi Calm Calm - N/A   Clear
12:35 AM 60.8 °F 60.8 °F 100% 30.02 in 10.0 mi Calm Calm - N/A   Clear
12:55 AM 60.8 °F 59.0 °F 94% 30.03 in 10.0 mi Calm Calm - N/A   Clear
1:15 AM 59.0 °F 59.0 °F 100% 30.03 in 10.0 mi Calm Calm - N/A   Clear
1:35 AM 59.0 °F 59.0 °F 100% 30.03 in 10.0 mi Calm Calm - N/A   Clear
1:55 AM 60.8 °F 60.8 °F 100% 30.03 in 10.0 mi Calm Calm - N/A   Clear
2:15 AM 60.8 °F 59.0 °F 94% 30.03 in 10.0 mi Calm Calm - N/A   Clear
2:35 AM 60.8 °F 60.8 °F 100% 30.04 in 10.0 mi Calm Calm - N/A   Clear
2:55 AM 60.8 °F 60.8 °F 100% 30.04 in 10.0 mi Calm Calm - N/A   Clear
3:15 AM 60.8 °F 60.8 °F 100% 30.04 in 10.0 mi Calm Calm - N/A   Clear
3:35 AM 60.8 °F 60.8 °F 100% 30.04 in 10.0 mi Calm Calm - N/A   Clear
3:55 AM 60.8 °F 60.8 °F 100% 30.04 in 10.0 mi Calm Calm - N/A   Clear
4:15 AM 60.8 °F 60.8 °F 100% 30.04 in 10.0 mi Calm Calm - N/A   Clear
4:35 AM 60.8 °F 60.8 °F 100% 30.04 in 10.0 mi Calm Calm - N/A   Clear
4:55 AM 60.8 °F 59.0 °F 94% 30.04 in 9.0 mi Calm Calm - N/A   Clear
5:15 AM 59.0 °F 59.0 °F 100% 30.05 in 9.0 mi Calm Calm - N/A   Partly Cloudy
5:35 AM 59.0 °F 59.0 °F 100% 30.05 in 9.0 mi Calm Calm - N/A   Partly Cloudy
5:55 AM 60.8 °F 59.0 °F 94% 30.06 in 8.0 mi Calm Calm - N/A   Partly Cloudy
6:15 AM 60.8 °F 60.8 °F 100% 30.06 in 10.0 mi Calm Calm - N/A   Clear
6:35 AM 60.8 °F 60.8 °F 100% 30.07 in 10.0 mi Calm Calm - N/A   Clear
7:15 AM 62.6 °F 60.8 °F 94% 30.07 in 10.0 mi Calm Calm - N/A   Clear
7:35 AM 64.4 °F 62.6 °F 94% 30.07 in 10.0 mi Calm Calm - N/A   Clear
7:55 AM 66.2 °F 62.6 °F 88% 30.07 in 10.0 mi Calm Calm - N/A   Clear
8:15 AM 66.2 °F 62.6 °F 88% 30.08 in 10.0 mi Calm Calm - N/A   Clear
8:35 AM 66.2 °F 62.6 °F 88% 30.08 in 10.0 mi Calm Calm - N/A   Clear
8:55 AM 69.8 °F 62.6 °F 78% 30.08 in 10.0 mi Calm Calm - N/A   Clear
9:15 AM 69.8 °F 62.6 °F 78% 30.08 in 10.0 mi Calm Calm - N/A   Scattered Clouds
9:35 AM 69.8 °F 62.6 °F 78% 30.09 in 10.0 mi SSW 3.5 mph - N/A   Unknown
9:55 AM 69.8 °F 62.6 °F 78% 30.09 in 10.0 mi South 4.6 mph - N/A   Mostly Cloudy
10:15 AM 69.8 °F 62.6 °F 78% 30.09 in 10.0 mi Calm Calm - N/A   Overcast
10:35 AM 68.0 °F 64.4 °F 88% 30.10 in 10.0 mi WSW 4.6 mph - N/A   Overcast
10:55 AM 66.2 °F 64.4 °F 94% 30.11 in 4.0 mi WNW 5.8 mph - N/A   Overcast
11:15 AM 64.4 °F 64.4 °F 100% 30.11 in 4.0 mi NW 5.8 mph - N/A   Overcast
11:35 AM 64.4 °F 64.4 °F 100% 30.11 in 2.5 mi Calm Calm - N/A   Unknown
11:55 AM 64.4 °F 64.4 °F 100% 30.11 in 3.0 mi Calm Calm - N/A   Overcast
12:15 PM 64.4 °F 62.6 °F 94% 30.10 in 1.8 mi Calm Calm - N/A   Overcast
12:35 PM 64.4 °F 64.4 °F 100% 30.09 in 8.0 mi Calm Calm - N/A   Mostly Cloudy
12:55 PM 64.4 °F 64.4 °F 100% 30.09 in 10.0 mi Calm Calm - N/A   Mostly Cloudy
1:15 PM 64.4 °F 64.4 °F 100% 30.09 in 6.0 mi Calm Calm - N/A   Mostly Cloudy
1:35 PM 66.2 °F 66.2 °F 100% 30.08 in 6.0 mi Calm Calm - N/A   Partly Cloudy
2:15 PM 66.2 °F 64.4 °F 94% 30.08 in 2.5 mi Calm Calm - N/A   Mostly Cloudy
2:35 PM 66.2 °F 66.2 °F 100% 30.07 in 4.0 mi Calm Calm - N/A   Scattered Clouds
2:55 PM 66.2 °F 66.2 °F 100% 30.06 in 7.0 mi Calm Calm - N/A   Unknown
3:15 PM 66.2 °F 66.2 °F 100% 30.05 in 8.0 mi Calm Calm - N/A   Scattered Clouds
3:35 PM 66.2 °F 66.2 °F 100% 30.05 in 8.0 mi Calm Calm - N/A   Mostly Cloudy
3:55 PM 68.0 °F 66.2 °F 94% 30.04 in 8.0 mi East 3.5 mph - N/A   Mostly Cloudy
4:15 PM 68.0 °F 66.2 °F 94% 30.04 in 10.0 mi ESE 4.6 mph - N/A   Mostly Cloudy
4:35 PM 66.2 °F 66.2 °F 100% 30.04 in 2.5 mi ESE 5.8 mph - N/A   Overcast
4:55 PM 66.2 °F 66.2 °F 100% 30.03 in 10.0 mi Calm Calm - N/A   Partly Cloudy
5:15 PM 66.2 °F 66.2 °F 100% 30.03 in 10.0 mi Calm Calm - N/A   Clear
5:35 PM 68.0 °F 66.2 °F 94% 30.03 in 10.0 mi Calm Calm - N/A   Clear
5:55 PM 66.2 °F 66.2 °F 100% 30.02 in 9.0 mi Calm Calm - N/A   Partly Cloudy
6:15 PM 68.0 °F 66.2 °F 94% 30.02 in 9.0 mi Calm Calm - N/A   Partly Cloudy
6:35 PM 66.2 °F 66.2 °F 100% 30.02 in 7.0 mi Calm Calm - N/A   Scattered Clouds
6:55 PM 66.2 °F 66.2 °F 100% 30.02 in 8.0 mi Calm Calm - N/A   Scattered Clouds
7:15 PM 66.2 °F 66.2 °F 100% 30.01 in 8.0 mi Calm Calm - N/A   Partly Cloudy
7:35 PM 66.2 °F 66.2 °F 100% 30.02 in 9.0 mi Calm Calm - N/A   Scattered Clouds
7:55 PM 66.2 °F 66.2 °F 100% 30.02 in 9.0 mi Calm Calm - N/A   Scattered Clouds
8:15 PM 66.2 °F 66.2 °F 100% 30.02 in 4.0 mi Calm Calm - N/A   Mostly Cloudy
8:35 PM 64.4 °F 64.4 °F 100% 30.02 in 4.0 mi Calm Calm - N/A   Mostly Cloudy
8:55 PM 66.2 °F 66.2 °F 100% 30.03 in 8.0 mi SSE 3.5 mph - N/A   Partly Cloudy
9:15 PM 66.2 °F 66.2 °F 100% 30.03 in 9.0 mi SSE 3.5 mph - N/A   Scattered Clouds
9:35 PM 66.2 °F 66.2 °F 100% 30.04 in 10.0 mi SSE 3.5 mph - N/A   Mostly Cloudy
9:55 PM 66.2 °F 66.2 °F 100% 30.04 in 10.0 mi South 6.9 mph - N/A   Overcast
10:15 PM 66.2 °F 64.4 °F 94% 30.05 in 10.0 mi South 5.8 mph - N/A   Mostly Cloudy
10:35 PM 64.4 °F 64.4 °F 100% 30.05 in 9.0 mi South 9.2 mph - N/A   Mostly Cloudy
10:55 PM 64.4 °F 64.4 °F 100% 30.05 in 9.0 mi South 6.9 mph - N/A   Overcast
11:15 PM 62.6 °F 62.6 °F 100% 30.05 in 5.0 mi South 6.9 mph - N/A   Overcast
11:35 PM 62.6 °F 62.6 °F 100% 30.04 in 6.0 mi Variable 3.5 mph - N/A   Overcast
11:55 PM 62.6 °F 62.6 °F 100% 30.04 in 10.0 mi SSE 4.6 mph - N/A   Overcast